TimeCST,TemperatureF,Dew PointF,Humidity,Sea Level PressureIn,VisibilityMPH,Wind Direction,Wind SpeedMPH,Gust SpeedMPH,PrecipitationIn,Events,Conditions,WindDirDegrees,DateUTC
12:15 AM,47.5,38.3,70,30.22,10.0,Calm,Calm,-,N/A,,Mostly Cloudy,0,2013-01-24 06:15:00
12:35 AM,46.4,38.1,73,30.22,10.0,West,4.6,-,N/A,,Mostly Cloudy,270,2013-01-24 06:35:00
12:55 AM,46.0,37.8,73,30.22,10.0,Calm,Calm,-,N/A,,Mostly Cloudy,0,2013-01-24 06:55:00
1:15 AM,46.4,37.8,72,30.22,10.0,Calm,Calm,-,N/A,,Overcast,0,2013-01-24 07:15:00
1:35 AM,46.4,38.5,74,30.23,10.0,Calm,Calm,-,N/A,Rain,Rain,0,2013-01-24 07:35:00
1:55 AM,46.2,39.6,78,30.23,10.0,NW,3.5,-,N/A,,Overcast,310,2013-01-24 07:55:00
2:15 AM,46.4,39.2,76,30.22,10.0,Calm,Calm,-,N/A,,Mostly Cloudy,0,2013-01-24 08:15:00
2:35 AM,46.0,39.0,76,30.22,10.0,Calm,Calm,-,N/A,,Overcast,0,2013-01-24 08:35:00
2:55 AM,45.9,39.6,79,30.22,10.0,Calm,Calm,-,N/A,,Overcast,0,2013-01-24 08:55:00
3:15 AM,46.8,40.1,78,30.22,10.0,NNW,4.6,-,N/A,,Overcast,330,2013-01-24 09:15:00
3:35 AM,47.3,40.1,76,30.21,10.0,NNW,6.9,-,N/A,,Mostly Cloudy,330,2013-01-24 09:35:00
3:55 AM,46.6,39.6,77,30.22,10.0,NNW,4.6,-,N/A,,Mostly Cloudy,340,2013-01-24 09:55:00
4:15 AM,46.4,39.4,77,30.22,10.0,North,5.8,-,N/A,,Mostly Cloudy,350,2013-01-24 10:15:00
4:35 AM,45.7,38.8,77,30.23,10.0,NNW,4.6,-,N/A,,Mostly Cloudy,340,2013-01-24 10:35:00
4:55 AM,45.1,38.3,77,30.23,10.0,NNW,6.9,-,N/A,,Mostly Cloudy,330,2013-01-24 10:55:00
5:15 AM,45.0,37.8,76,30.25,10.0,NW,6.9,-,N/A,,Mostly Cloudy,320,2013-01-24 11:15:00
5:35 AM,44.6,37.0,75,30.25,10.0,North,8.1,-,N/A,,Mostly Cloudy,350,2013-01-24 11:35:00
5:55 AM,43.9,36.7,76,30.26,10.0,North,8.1,-,N/A,,Mostly Cloudy,350,2013-01-24 11:55:00
6:15 AM,43.3,36.0,75,30.27,10.0,NNW,9.2,-,N/A,,Mostly Cloudy,340,2013-01-24 12:15:00
6:35 AM,42.8,35.6,76,30.28,10.0,North,5.8,-,N/A,,Scattered Clouds,360,2013-01-24 12:35:00
6:55 AM,41.7,35.1,77,30.29,10.0,North,3.5,-,N/A,,Scattered Clouds,350,2013-01-24 12:55:00
7:15 AM,40.8,33.8,76,30.31,10.0,North,5.8,-,N/A,,Scattered Clouds,360,2013-01-24 13:15:00
7:35 AM,40.1,32.2,73,30.32,10.0,North,8.1,-,N/A,,Clear,350,2013-01-24 13:35:00
7:55 AM,39.4,30.2,70,30.33,10.0,North,6.9,-,N/A,,Scattered Clouds,10,2013-01-24 13:55:00
8:15 AM,39.6,29.7,68,30.33,10.0,North,6.9,-,N/A,,Mostly Cloudy,360,2013-01-24 14:15:00
8:35 AM,39.6,28.9,66,30.35,10.0,North,9.2,16.1,N/A,,Overcast,360,2013-01-24 14:35:00
8:55 AM,39.0,28.6,66,30.36,10.0,NNE,10.4,-,N/A,,Overcast,20,2013-01-24 14:55:00
9:15 AM,38.8,27.1,63,30.37,10.0,North,8.1,-,N/A,,Overcast,360,2013-01-24 15:15:00
9:35 AM,38.7,23.0,53,30.36,10.0,North,12.7,17.3,N/A,,Mostly Cloudy,10,2013-01-24 15:35:00
9:55 AM,39.4,22.8,52,30.38,10.0,North,8.1,-,N/A,,Mostly Cloudy,350,2013-01-24 15:55:00
10:15 AM,40.1,21.0,47,30.38,10.0,NNE,8.1,-,N/A,,Clear,20,2013-01-24 16:15:00
10:35 AM,41.2,21.7,46,30.39,10.0,NNW,9.2,-,N/A,,Clear,330,2013-01-24 16:35:00
10:55 AM,41.7,20.5,43,30.38,10.0,NNW,9.2,-,N/A,,Clear,340,2013-01-24 16:55:00
11:15 AM,41.9,19.0,40,30.37,10.0,North,9.2,-,N/A,,Clear,350,2013-01-24 17:15:00
11:35 AM,42.3,19.2,40,30.37,10.0,NNW,11.5,16.1,N/A,,Clear,340,2013-01-24 17:35:00
11:55 AM,43.2,19.6,39,30.36,10.0,North,6.9,-,N/A,,Clear,360,2013-01-24 17:55:00
12:15 PM,43.0,20.8,41,30.35,10.0,North,9.2,-,N/A,,Clear,360,2013-01-24 18:15:00
12:35 PM,43.0,19.9,40,30.36,10.0,NNW,11.5,-,N/A,,Clear,340,2013-01-24 18:35:00
12:55 PM,43.3,19.6,39,30.36,10.0,NNE,13.8,18.4,N/A,,Clear,20,2013-01-24 18:55:00
1:15 PM,43.0,19.4,39,30.34,10.0,NNW,9.2,16.1,N/A,,Clear,330,2013-01-24 19:15:00
1:35 PM,43.7,19.0,37,30.34,10.0,North,9.2,-,N/A,,Clear,10,2013-01-24 19:35:00
1:55 PM,43.7,17.6,35,30.34,10.0,North,6.9,-,N/A,,Clear,10,2013-01-24 19:55:00
2:15 PM,44.2,17.8,35,30.33,10.0,North,4.6,-,N/A,,Clear,360,2013-01-24 20:15:00
2:35 PM,44.2,18.0,35,30.33,10.0,North,5.8,-,N/A,,Clear,350,2013-01-24 20:35:00
2:55 PM,44.2,18.7,36,30.33,10.0,North,6.9,-,N/A,,Clear,350,2013-01-24 20:55:00
3:15 PM,44.1,18.5,36,30.33,10.0,North,6.9,-,N/A,,Clear,10,2013-01-24 21:15:00
3:35 PM,43.9,18.3,36,30.33,10.0,North,9.2,-,N/A,,Clear,360,2013-01-24 21:35:00
3:55 PM,43.3,17.1,35,30.33,10.0,North,6.9,-,N/A,,Clear,360,2013-01-24 21:55:00
4:15 PM,42.6,15.8,34,30.33,10.0,North,9.2,-,N/A,,Clear,10,2013-01-24 22:15:00
4:35 PM,41.4,15.4,35,30.33,10.0,North,8.1,-,N/A,,Clear,10,2013-01-24 22:35:00
4:55 PM,40.3,16.3,38,30.34,10.0,North,4.6,-,N/A,,Clear,10,2013-01-24 22:55:00
5:15 PM,39.0,16.9,41,30.33,10.0,North,3.5,-,N/A,,Clear,10,2013-01-24 23:15:00
5:35 PM,37.9,17.2,43,30.33,10.0,North,3.5,-,N/A,,Clear,360,2013-01-24 23:35:00
5:55 PM,37.0,18.0,46,30.34,10.0,Calm,Calm,-,N/A,,Scattered Clouds,0,2013-01-24 23:55:00
6:15 PM,35.1,20.8,56,30.34,10.0,Calm,Calm,-,N/A,,Clear,0,2013-01-25 00:15:00
6:35 PM,33.1,21.6,63,30.34,10.0,NNE,3.5,-,N/A,,Clear,20,2013-01-25 00:35:00
6:55 PM,32.7,22.3,65,30.35,10.0,Calm,Calm,-,N/A,,Scattered Clouds,0,2013-01-25 00:55:00
7:15 PM,35.2,19.4,53,30.34,10.0,North,3.5,-,N/A,,Mostly Cloudy,10,2013-01-25 01:15:00
7:35 PM,35.8,19.6,52,30.33,10.0,Calm,Calm,-,N/A,,Scattered Clouds,0,2013-01-25 01:35:00
7:55 PM,34.0,21.0,59,30.33,10.0,Calm,Calm,-,N/A,,Mostly Cloudy,0,2013-01-25 01:55:00
8:15 PM,35.2,22.6,60,30.32,10.0,Calm,Calm,-,N/A,,Overcast,0,2013-01-25 02:15:00
8:35 PM,35.6,23.0,60,30.32,10.0,Calm,Calm,-,N/A,,Mostly Cloudy,0,2013-01-25 02:35:00
8:55 PM,36.0,21.7,56,30.31,10.0,Calm,Calm,-,N/A,,Mostly Cloudy,0,2013-01-25 02:55:00
9:15 PM,36.1,20.8,54,30.31,10.0,NE,3.5,-,N/A,,Overcast,40,2013-01-25 03:15:00
9:35 PM,37.0,20.8,52,30.31,10.0,ENE,3.5,-,N/A,,Overcast,60,2013-01-25 03:35:00
9:55 PM,37.6,20.1,49,30.31,10.0,East,3.5,-,N/A,,Mostly Cloudy,80,2013-01-25 03:55:00
10:15 PM,38.1,20.7,49,30.30,10.0,East,4.6,-,N/A,,Mostly Cloudy,100,2013-01-25 04:15:00
10:35 PM,38.3,20.8,50,30.29,10.0,ESE,8.1,-,N/A,,Mostly Cloudy,110,2013-01-25 04:35:00
10:55 PM,37.9,20.7,50,30.29,10.0,ESE,10.4,-,N/A,,Overcast,110,2013-01-25 04:55:00
11:15 PM,37.8,19.2,47,30.28,10.0,ESE,8.1,-,N/A,,Mostly Cloudy,110,2013-01-25 05:15:00
11:35 PM,37.6,18.5,46,30.28,10.0,East,5.8,-,N/A,,Overcast,100,2013-01-25 05:35:00
11:55 PM,37.6,17.4,44,30.28,10.0,ESE,8.1,-,N/A,,Overcast,110,2013-01-25 05:55:00